Wind_Speed
28 27 25 22 18 14 11 11 10 10 9 9 8 8 7 6 5 4 3 3 2 1 1 0 1 1 2 3 4 5 6 7 9 10 13 15 16 17 17 17 17 17 17 17 17 17 17 17 18 18 18 18 19 19 20 20 20 21 21 22 22 23 23 24 24 24 25 25 25
26 23 20 19 17 15 13 12 12 11 10 8 7 6 6 5 4 3 3 2 2 2 1 1 2 3 4 6 7 8 9 10 12 14 16 17 19 19 19 18 17 17 17 17 17 17 18 18 18 18 19 19 19 20 20 21 21 21 22 23 23 23 23 24 24 24 25 25 25
19 17 17 17 16 15 13 12 12 11 10 8 6 6 5 5 4 4 3 3 3 3 2 2 4 6 7 9 10 10 12 13 15 16 18 18 19 19 19 18 18 18 17 18 18 18 18 18 19 19 20 20 20 21 21 21 21 22 23 23 23 23 23 23 24 24 24 24 24
15 15 15 15 15 14 13 12 11 10 9 8 7 7 6 5 5 5 5 4 3 1 2 5 7 9 9 10 11 12 13 15 16 17 18 19 19 19 18 18 18 18 18 18 18 18 19 19 19 20 20 21 21 21 22 22 22 22 23 23 23 23 23 23 23 23 23 23 24
14 14 14 14 14 14 13 12 11 10 9 9 8 8 7 7 6 6 4 2 1 4 7 8 9 9 10 11 12 13 15 16 17 17 18 19 18 18 18 18 18 18 18 19 19 19 19 20 20 20 20 21 21 21 22 22 22 22 23 23 23 23 23 23 23 23 23 23 24
12 13 13 14 14 14 13 12 11 11 11 11 10 9 8 7 6 3 1 3 5 6 7 8 9 10 11 12 13 14 15 16 17 18 18 18 18 18 18 18 19 19 19 19 20 20 20 20 20 20 21 21 21 21 22 22 22 22 23 23 23 23 23 23 23 23 23 23 24
12 13 13 14 14 14 14 14 14 13 13 13 12 10 9 6 3 1 3 4 5 6 7 8 9 11 12 13 14 15 16 17 17 17 17 17 18 18 19 19 19 19 20 20 20 21 21 21 21 21 21 21 21 22 22 22 22 22 23 23 23 22 22 23 23 23 23 23 24
12 12 13 14 14 15 15 15 15 15 14 13 11 9 6 3 1 1 2 4 5 7 8 10 11 12 13 14 15 16 17 18 18 18 18 18 19 19 19 19 20 20 20 20 21 21 21 21 21 21 21 21 22 22 22 22 22 22 23 23 23 23 23 23 23 23 23 24 24
13 13 14 14 15 16 16 16 16 14 12 10 7 5 3 1 1 1 3 5 7 8 10 11 12 13 14 15 16 16 17 18 18 18 18 18 19 19 19 19 20 20 20 20 21 21 21 21 21 22 22 22 22 22 22 22 23 23 24 24 24 24 24 24 24 24 24 25 25
14 15 15 15 16 16 16 15 14 11 9 6 4 3 2 1 1 3 5 7 9 10 11 12 13 14 14 15 16 17 17 18 18 18 18 18 18 18 18 19 19 20 20 21 21 21 22 22 22 22 23 23 23 24 24 24 24 25 25 25 25 25 25 25 25 26 26 26 26
16 16 16 16 16 15 15 13 10 8 6 4 3 2 1 2 3 5 7 8 10 11 12 13 13 14 14 15 16 16 16 17 17 17 17 17 18 18 19 20 20 21 21 22 22 22 23 23 23 24 24 24 25 25 25 25 26 26 26 27 27 27 27 27 27 27 27 27 27
16 16 16 15 15 14 12 10 7 6 4 3 2 2 3 4 6 7 8 10 11 12 13 13 13 14 14 15 15 16 16 16 17 17 18 18 19 19 20 21 21 22 23 23 23 24 24 24 24 25 25 26 26 26 26 26 26 27 27 27 27 27 27 27 27 27 27 27 27
16 16 15 13 12 11 10 8 6 5 4 3 3 4 5 6 7 8 9 10 11 12 12 13 13 14 14 15 16 16 17 17 17 18 18 19 20 20 21 22 22 23 23 24 24 24 24 25 25 26 26 27 27 27 27 27 27 27 28 28 28 28 28 28 28 28 28 28 28
16 16 14 12 11 10 9 7 6 5 4 4 5 6 7 7 8 9 9 10 11 11 12 12 13 14 15 16 17 17 17 17 18 18 19 20 20 21 22 22 23 23 24 24 25 25 25 26 26 26 27 27 28 28 28 28 28 28 28 28 28 28 28 28 28 28 28 28 28
15 15 13 12 11 10 8 7 5 5 4 5 6 6 7 8 8 8 9 10 10 11 12 13 14 15 16 16 17 17 17 17 18 19 19 20 21 21 22 23 23 24 24 25 25 25 26 26 26 27 27 28 28 28 28 28 29 29 28 28 28 29 29 29 29 28 28 28 28
14 13 12 11 10 9 7 6 5 5 5 6 6 7 7 7 8 8 9 10 11 12 13 14 15 16 16 16 16 17 17 18 18 19 20 20 21 22 22 23 23 24 25 25 26 26 26 27 27 27 28 28 28 29 29 29 29 29 29 29 29 29 29 29 29 29 29 28 28
12 11 10 9 8 7 6 6 6 6 6 6 7 7 7 7 8 8 9 10 12 13 14 15 16 16 17 17 17 17 18 18 19 19 20 21 21 22 23 24 24 25 25 26 26 27 27 27 28 28 28 29 29 29 29 29 29 29 29 30 30 30 30 29 29 29 29 29 29
11 10 9 8 7 6 6 6 6 6 6 6 7 7 7 8 8 9 10 11 13 14 15 16 17 17 17 18 18 18 18 19 19 20 21 21 22 23 24 24 25 26 26 26 27 27 28 28 28 28 28 29 29 29 29 29 29 29 29 30 30 30 29 29 29 29 29 29 29
9 8 7 6 6 6 6 6 6 6 6 7 7 7 7 8 9 10 11 12 14 15 16 17 17 18 18 18 19 19 19 19 20 21 21 22 23 24 25 25 26 26 27 27 27 28 28 28 28 28 28 29 29 29 29 29 29 29 29 29 29 29 29 29 30 30 30 30 30
8 7 6 5 5 5 6 6 6 6 6 7 7 7 8 8 10 11 13 14 15 16 17 18 18 18 18 19 19 20 20 20 21 22 22 23 24 24 25 26 26 27 27 27 28 28 28 28 28 28 28 28 28 29 29 29 29 29 29 29 29 30 30 30 30 30 29 28 28
6 5 4 4 5 5 6 6 6 6 6 6 6 7 8 10 11 13 14 15 16 17 17 18 18 19 19 20 20 21 21 21 22 22 23 24 24 25 26 26 27 27 27 27 27 28 28 28 28 28 28 28 28 29 29 29 29 29 29 29 29 30 30 29 28 27 26 25 25
4 3 3 4 4 5 5 5 5 5 5 6 6 8 9 11 13 14 15 16 16 17 17 18 18 19 20 20 21 21 22 22 23 23 24 25 25 26 26 26 27 27 27 27 27 27 28 28 28 28 28 28 28 28 28 28 28 28 28 29 28 28 27 26 25 24 23 23 23
2 2 3 4 4 5 5 5 5 5 5 6 7 9 11 12 13 14 15 16 16 17 17 18 19 20 20 21 21 22 23 23 24 25 25 26 26 27 27 27 27 27 27 27 27 27 27 27 27 27 26 26 26 27 27 27 27 27 27 27 27 26 26 25 23 23 22 23 24
2 2 3 4 4 5 5 5 4 5 6 7 9 10 12 13 14 14 15 16 17 17 18 19 20 21 21 22 22 23 23 24 25 26 26 26 26 27 27 26 26 26 27 27 27 26 26 26 26 26 26 26 26 27 27 27 27 27 27 27 26 26 26 26 26 26 26 27 28
2 3 4 5 5 4 4 4 4 5 7 9 10 11 12 13 14 15 16 17 18 19 20 21 21 22 22 22 23 23 23 24 25 25 26 26 26 26 26 26 26 26 26 26 26 26 26 26 26 26 26 27 27 27 27 27 27 27 26 26 26 27 27 28 29 30 31 31 32
3 4 5 5 4 4 4 4 5 7 9 10 11 12 13 14 15 16 17 18 19 20 21 22 22 22 22 22 22 23 23 23 24 24 25 25 26 26 26 26 26 26 26 26 26 26 27 27 27 28 27 27 27 26 25 25 25 25 24 24 25 26 26 27 28 29 30 31 32
4 4 4 4 4 4 4 5 7 8 10 11 12 12 13 14 15 16 18 19 20 21 21 22 22 22 22 21 22 22 22 23 23 24 25 25 26 26 26 26 26 26 26 26 27 27 27 27 27 27 26 24 23 21 20 21 22 22 22 22 24 24 25 26 27 28 30 31 31
4 4 4 4 4 5 6 7 9 10 11 12 12 13 14 15 16 17 19 20 21 21 21 21 21 21 21 21 21 22 23 23 24 25 25 26 26 27 27 27 27 27 27 27 27 27 27 27 27 25 23 21 20 20 20 20 21 21 22 23 23 24 25 26 27 28 29 30 30
4 4 4 5 5 7 8 9 10 11 12 12 13 13 14 15 17 19 20 20 21 21 21 21 21 21 21 21 22 23 24 25 25 25 26 26 26 26 27 27 27 27 27 27 27 28 28 27 25 24 22 22 21 21 22 22 22 23 23 24 24 25 26 27 28 28 28 28 28
5 5 5 6 7 9 10 11 11 12 12 12 13 13 15 17 18 19 20 20 21 21 21 21 21 22 22 23 24 24 25 25 25 25 26 26 26 26 27 27 27 27 27 28 28 28 27 26 25 24 23 23 23 23 24 24 24 25 25 26 26 27 27 27 28 28 28 28 28
6 7 8 9 10 11 11 12 12 12 12 12 13 14 16 18 19 20 20 20 21 21 21 22 22 23 23 24 24 24 25 25 26 26 26 26 26 27 27 27 27 28 28 27 27 27 26 25 25 24 25 25 25 26 26 26 26 26 26 26 27 27 27 27 27 28 28 28 28
8 9 10 10 11 12 12 12 11 11 11 12 14 16 17 19 19 20 20 21 21 21 22 22 22 23 23 24 24 25 25 26 26 26 26 26 26 27 27 27 27 27 27 27 26 26 25 25 25 26 27 27 27 27 27 27 27 27 27 27 27 28 28 28 28 28 29 29 29
10 10 11 11 12 12 11 11 10 11 12 14 16 17 19 19 20 20 21 21 21 21 21 22 22 23 23 24 24 25 26 26 26 26 26 26 26 27 27 27 27 27 26 26 25 25 26 26 27 27 28 28 28 28 27 27 26 26 26 26 27 28 28 29 29 29 29 30 30
11 11 12 12 11 11 10 10 11 12 14 16 17 19 19 20 20 21 21 21 21 21 21 22 22 23 23 24 25 25 26 26 26 26 26 26 26 26 27 27 27 26 26 25 25 26 26 27 28 28 29 29 28 27 27 26 25 26 26 27 28 28 29 29 29 30 30 30 30
12 12 11 10 9 9 9 10 12 14 16 18 19 20 20 20 20 21 21 21 21 21 22 22 23 23 24 25 25 25 26 26 26 26 26 26 26 26 26 27 26 26 25 25 26 26 27 28 28 29 28 28 27 26 26 26 25 26 26 27 28 28 28 28 28 29 29 29 29
11 11 9 8 8 8 10 12 14 16 17 19 20 20 20 20 20 20 20 21 21 21 22 22 23 24 24 25 25 25 25 26 26 26 26 26 26 26 26 26 26 25 25 25 26 27 28 28 29 28 28 27 26 25 25 25 25 25 25 26 26 27 27 28 28 28 28 29 29
8 7 6 6 8 10 12 14 16 17 18 19 19 19 19 19 20 20 20 20 21 21 22 23 23 24 24 25 25 25 25 25 26 26 26 26 26 25 25 25 25 25 26 26 27 28 29 29 29 28 28 27 26 25 25 25 24 24 24 25 25 26 26 27 27 27 28 28 29
4 4 5 8 10 12 14 16 17 18 18 19 19 19 19 19 19 19 20 20 21 21 22 23 23 24 24 25 25 26 26 26 25 26 26 25 25 24 24 24 25 26 27 28 28 29 29 29 29 28 28 27 26 26 25 24 24 24 24 24 24 25 25 25 25 26 27 28 29
4 6 8 11 13 15 16 17 18 18 19 19 18 18 18 19 19 20 20 20 21 21 22 23 24 24 25 25 26 26 26 26 25 25 24 24 24 23 24 25 26 28 28 28 28 28 28 29 29 29 29 28 27 26 25 24 24 24 24 24 24 24 25 25 25 25 26 27 28
7 9 11 13 15 16 17 18 18 18 18 18 17 18 18 19 19 20 20 20 21 22 22 23 24 25 25 25 26 26 26 26 25 24 23 23 23 24 25 26 27 28 29 28 28 28 28 29 29 29 29 29 28 26 25 24 23 23 24 24 24 24 24 24 24 24 24 24 25
10 12 13 15 16 17 17 18 18 17 17 17 17 17 18 19 20 20 20 21 21 22 23 23 24 25 25 26 26 26 26 25 25 24 23 23 24 24 25 26 27 28 28 28 28 28 28 28 29 29 29 28 28 26 25 23 23 23 24 24 23 22 22 21 21 20 20 20 20
Wind_Direction
249 244 240 234 228 216 199 187 179 165 148 137 135 138 142 142 140 134 130 136 138 146 160 174 265 298 307 313 315 316 314 310 307 304 301 299 298 296 293 290 288 286 285 284 284 283 283 283 282 281 281 280 280 279 279 278 278 278 278 277 276 276 276 276 276 276 275 275 274
250 243 231 221 213 204 191 178 173 169 162 153 145 143 146 147 144 140 134 125 120 115 100 61 4 336 323 313 309 308 307 305 303 302 300 298 297 294 291 287 285 284 283 283 283 283 283 282 281 281 280 279 279 278 278 278 277 277 277 276 276 276 276 276 275 275 275 275 275
242 229 218 210 203 192 178 170 167 167 167 165 158 149 144 144 146 140 129 120 111 98 70 358 327 318 311 305 302 302 302 302 301 299 297 295 293 290 286 283 282 282 282 282 282 282 282 282 281 281 280 279 279 278 278 277 277 276 276 275 275 275 275 275 275 275 276 275 275
225 215 205 194 184 181 177 170 166 165 165 162 155 148 143 140 139 133 124 115 101 58 324 303 299 299 300 300 300 300 299 298 296 294 292 290 287 283 279 279 279 280 280 281 281 281 281 281 281 281 280 279 278 278 277 277 276 275 274 274 274 274 274 274 275 275 275 275 275
208 201 191 180 174 173 171 168 165 163 160 154 149 144 140 134 130 125 117 104 320 296 291 292 294 297 298 298 297 296 294 293 290 288 286 284 279 277 276 277 278 279 280 280 281 281 281 281 281 281 280 279 278 277 276 276 275 274 274 273 273 273 273 274 274 275 275 275 275
175 171 167 163 161 158 154 153 153 152 149 144 140 137 132 126 124 125 192 280 282 286 290 295 297 297 296 294 292 291 289 288 286 284 281 277 275 275 276 277 278 279 280 280 281 282 282 282 282 281 280 279 278 277 276 275 274 273 273 273 272 272 273 273 274 274 275 275 275
151 147 146 146 146 145 143 142 142 142 141 138 134 130 126 124 129 207 270 278 284 289 294 297 296 293 290 288 287 286 285 284 283 280 275 274 275 276 277 277 278 279 280 281 282 282 282 282 282 281 280 279 278 277 276 274 273 273 272 272 272 272 272 273 274 274 275 275 275
141 139 138 139 141 141 141 141 141 140 139 136 132 131 132 137 175 261 282 289 291 292 291 289 286 284 283 282 282 282 283 282 278 275 274 275 276 276 277 278 279 280 281 282 282 282 282 282 281 280 279 278 277 276 275 274 273 272 272 272 273 273 273 273 274 274 274 275 275
140 139 139 139 140 142 143 143 143 141 139 139 140 148 163 182 238 284 290 288 285 283 281 278 277 277 277 278 279 280 280 276 273 272 274 275 276 277 277 279 280 281 282 283 283 283 283 282 281 280 278 277 276 275 275 274 274 274 273 274 274 274 274 273 274 274 274 275 275
141 139 138 139 140 142 143 143 144 144 144 147 157 169 178 199 252 272 275 275 274 272 271 270 271 272 274 275 277 277 275 270 270 271 274 275 276 278 279 280 282 283 283 284 284 284 284 282 281 280 279 277 277 276 276 276 276 275 275 275 275 275 275 274 274 274 275 275 275
141 140 140 140 141 142 142 142 145 149 153 155 165 176 194 225 249 258 262 263 264 263 264 266 269 271 273 275 277 276 273 271 271 273 276 278 279 281 283 284 284 285 285 285 285 285 284 283 282 281 280 279 278 278 278 277 276 276 276 275 275 275 275 275 275 275 275 274 275
141 141 142 143 143 143 142 143 148 154 160 166 184 208 229 241 247 251 254 256 257 260 263 267 270 273 275 277 279 280 279 278 278 279 281 283 284 285 286 286 286 286 286 286 286 285 284 283 282 281 280 280 279 278 278 277 277 276 276 276 276 275 275 275 275 275 274 274 274
140 141 144 151 150 147 145 147 150 156 165 183 209 229 240 246 249 251 252 254 256 260 264 268 272 275 278 281 282 283 283 283 283 284 285 286 287 287 288 288 287 287 287 286 286 285 284 283 282 281 280 279 278 278 277 277 276 276 276 276 276 275 275 275 275 275 274 274 274
139 140 144 151 152 150 149 150 154 162 178 203 223 236 242 247 250 251 253 256 259 262 267 271 274 277 280 282 282 282 282 283 284 285 286 287 288 288 288 288 287 287 287 286 286 285 284 283 281 281 280 279 278 277 277 276 276 276 276 276 275 275 275 275 275 275 275 274 274
139 140 143 147 151 152 153 156 163 176 197 217 229 238 244 247 249 252 255 259 263 266 270 274 276 279 280 281 281 281 282 283 284 285 286 287 287 288 288 288 288 288 287 287 286 286 284 283 282 281 280 279 279 278 277 277 276 276 276 275 275 275 275 275 275 275 275 275 275
140 142 144 147 151 155 160 168 179 194 210 224 234 240 244 246 248 252 257 262 267 270 273 275 278 279 280 280 279 280 282 283 284 285 286 286 287 287 287 288 288 288 288 288 287 286 285 284 283 282 281 280 280 279 279 278 278 277 277 276 276 276 276 276 276 276 276 276 276
142 143 145 148 153 161 172 186 199 210 220 229 237 240 242 244 248 253 259 265 270 273 275 277 279 279 279 279 280 281 282 283 284 284 285 285 286 287 287 287 287 288 288 287 287 286 285 284 283 283 282 281 281 280 280 280 279 279 278 278 278 277 277 277 277 277 277 277 277
144 145 148 153 162 175 191 204 213 220 227 233 238 241 242 245 251 257 263 268 273 276 278 280 280 279 279 279 280 281 281 282 282 283 284 284 285 286 286 287 287 287 287 287 286 286 285 284 284 283 283 282 282 282 281 281 280 280 279 279 279 278 278 278 278 278 278 277 277
148 150 155 165 180 196 208 217 223 227 232 237 241 244 247 252 257 264 269 274 277 280 282 282 281 280 279 280 280 281 281 281 282 282 283 284 285 285 286 286 286 287 287 286 286 285 285 284 284 284 283 283 283 282 282 281 281 280 280 279 279 278 278 278 277 277 277 276 276
155 161 170 186 203 216 223 227 230 234 238 242 246 251 257 263 267 272 275 279 281 283 283 283 281 281 281 281 281 282 282 282 283 283 284 284 285 285 285 286 286 286 286 286 285 285 285 284 284 284 283 283 282 282 281 281 280 279 279 278 278 277 277 276 276 275 275 275 275
165 176 195 214 227 233 236 237 237 239 242 247 254 262 269 273 275 277 279 281 283 283 282 281 281 282 282 283 283 283 284 284 284 285 285 285 285 285 285 285 286 286 286 285 285 285 284 284 283 283 282 282 281 281 280 280 279 278 277 277 276 276 275 274 274 274 274 274 274
179 200 225 242 247 247 245 242 241 243 249 259 268 273 277 278 279 280 282 283 283 282 282 282 283 284 284 285 285 285 286 286 285 285 285 285 285 285 285 285 285 285 285 284 284 284 283 283 282 282 281 281 280 280 280 280 279 279 278 278 277 277 276 275 275 275 274 274 275
206 235 254 260 258 252 246 243 244 251 262 271 276 278 279 280 281 283 284 285 284 284 284 285 286 286 286 286 286 286 286 286 285 285 284 284 284 284 284 285 284 284 284 284 284 283 283 283 282 282 282 282 281 281 281 281 281 282 282 281 281 280 280 279 278 277 276 276 277
255 271 274 269 261 252 246 245 251 263 273 276 277 278 280 282 285 287 288 288 288 288 288 288 288 288 288 287 287 287 286 286 285 285 285 284 284 284 284 284 284 284 284 283 283 283 282 282 282 282 282 282 282 281 281 281 281 281 281 282 282 282 281 281 280 279 279 279 280
293 289 280 269 259 251 248 253 263 272 275 275 276 279 282 285 288 290 290 290 290 290 290 289 289 289 288 288 287 286 286 285 285 285 285 284 284 284 285 284 284 284 284 283 283 283 283 282 282 282 282 282 281 281 280 280 279 279 279 280 280 280 280 279 278 277 277 277 277
302 291 280 268 256 252 256 265 271 272 272 273 277 281 284 288 290 291 292 292 292 292 291 290 290 290 289 289 288 287 286 285 284 284 285 285 286 286 286 286 285 285 285 285 285 285 284 284 284 283 283 282 282 281 281 280 279 279 279 279 279 278 278 277 276 275 275 275 274
302 288 275 264 257 259 265 270 270 270 271 274 278 283 286 289 291 293 294 293 293 292 291 291 291 291 291 290 289 288 287 287 287 287 287 287 288 288 288 288 287 287 287 287 287 287 288 288 288 288 287 286 285 285 284 283 282 282 281 281 279 278 277 276 276 276 275 275 274
295 281 270 264 263 266 268 268 268 269 272 276 280 284 287 291 293 294 294 293 293 292 292 292 293 293 293 292 291 290 290 290 290 290 290 290 290 289 289 289 289 289 289 290 290 291 292 292 293 293 292 291 290 289 287 287 286 285 283 282 280 278 277 277 276 276 275 274 273
279 270 266 264 263 262 262 263 265 268 273 277 281 285 289 292 293 293 293 293 293 293 294 295 296 296 295 294 293 293 293 292 292 292 292 292 291 291 292 292 292 292 292 293 293 294 294 295 295 295 294 293 294 293 291 289 288 286 285 283 281 280 279 277 276 274 273 272 271
264 261 258 257 256 256 257 259 263 268 273 278 284 289 292 293 293 293 293 293 294 295 297 298 298 297 296 295 295 294 294 294 294 294 294 294 294 295 295 295 295 295 295 295 295 295 294 294 294 295 295 295 296 295 293 291 289 287 286 284 281 279 277 275 273 271 270 269 269
254 252 251 251 251 253 255 259 264 270 276 282 288 292 293 293 293 293 294 295 296 298 299 298 298 297 296 296 296 296 296 296 296 297 297 297 297 297 297 297 296 296 295 295 295 294 294 294 294 294 295 297 297 296 295 292 290 287 285 282 279 276 274 272 270 269 268 268 267
247 247 247 249 250 253 257 262 269 276 283 289 292 293 293 292 293 294 295 297 298 299 299 299 298 297 297 297 297 297 298 298 298 298 298 298 298 298 298 297 296 296 295 295 295 294 294 295 295 295 296 297 298 297 295 291 288 285 281 278 275 273 271 269 268 267 267 267 267
245 246 247 249 251 255 260 268 276 284 290 293 294 293 293 292 294 295 297 299 299 300 299 299 299 299 299 299 299 299 299 299 299 299 299 299 299 298 298 297 296 296 295 295 295 295 295 295 296 296 297 297 297 295 292 289 285 281 278 275 273 272 270 269 268 266 266 266 266
243 244 246 250 255 262 271 279 286 291 293 294 293 293 293 294 295 297 299 300 300 300 300 300 300 300 300 300 300 300 300 300 300 300 300 300 300 299 298 297 296 296 295 295 295 295 296 296 296 297 297 297 295 292 289 285 281 278 276 274 273 271 270 269 267 266 265 265 264
242 243 246 253 262 273 282 287 291 293 294 293 293 293 294 296 297 299 300 301 302 302 301 301 301 301 300 300 300 300 301 301 301 301 302 301 301 300 299 297 296 296 296 296 297 297 297 297 297 297 297 295 293 290 286 283 279 277 275 273 272 271 270 268 267 266 265 264 263
244 245 249 256 268 279 287 291 294 295 295 294 294 296 298 299 300 302 303 304 304 304 303 302 302 301 301 301 301 301 302 302 303 303 303 302 302 301 299 298 298 298 298 298 299 299 299 298 298 297 295 294 291 287 285 282 279 276 274 273 271 270 270 269 268 267 266 265 264
247 249 258 270 282 290 295 298 299 298 298 298 299 300 302 303 304 305 306 306 306 305 304 303 302 302 302 302 302 303 303 303 303 303 303 302 302 301 301 300 300 300 301 301 301 300 299 298 297 295 294 292 289 286 284 281 279 276 274 273 272 271 270 270 269 267 266 265 264
261 279 294 299 302 304 305 305 304 302 301 301 303 304 306 307 307 307 307 307 306 305 303 303 303 302 303 303 304 304 304 304 304 304 303 303 303 303 304 304 303 303 302 302 301 300 299 297 296 294 293 290 288 285 282 280 278 276 274 273 273 272 271 271 270 268 267 266 264
327 321 316 314 313 312 310 308 305 304 304 305 307 308 309 309 308 308 307 306 305 304 304 303 303 304 304 305 305 305 305 304 304 304 304 304 305 305 306 306 305 304 303 302 301 299 298 297 295 295 294 291 288 285 282 279 277 275 275 275 275 274 273 272 271 269 268 266 265
336 328 322 318 315 313 310 307 306 306 307 309 311 311 311 310 308 307 307 306 305 305 305 305 304 305 305 306 306 305 305 305 304 305 305 306 306 307 307 306 305 304 302 301 300 299 297 296 295 295 295 292 289 286 283 281 278 276 276 276 276 276 275 274 272 271 270 269 269
332 326 321 317 313 310 308 307 307 308 310 312 312 311 310 308 307 307 307 307 307 307 306 306 305 305 305 306 305 305 305 305 305 306 307 307 307 307 307 306 305 303 302 301 300 298 297 296 296 295 295 293 292 290 287 284 281 278 277 276 276 276 277 277 277 277 277 278 281
Height
756 757 758 759 760 761 762 763 764 766 767 768 769 770 772 773 774 775 776 777 778 779 780 781 782 782 782 783 783 783 783 783 784 785 786 786 786 786 786 786 785 785 785 784 784 783 783 783 782 782 782 781 781 780 780 780 780 779 779 778 778 777 777 776 776 775 775 775 774
754 755 755 756 757 759 761 762 763 765 767 768 769 770 772 772 774 775 776 777 778 779 780 781 782 782 782 783 783 783 783 783 784 785 785 785 786 785 785 785 784 784 783 783 782 782 782 781 781 780 780 779 779 779 778 778 778 777 777 777 776 776 775 774 774 774 773 773 772
752 752 753 754 756 758 760 762 763 764 766 768 769 770 771 772 774 775 776 777 778 779 780 781 782 782 782 783 783 783 783 784 784 784 784 785 785 784 784 784 783 782 782 782 781 781 780 780 779 779 778 778 777 777 777 776 776 776 775 775 774 774 773 773 772 772 772 771 771
750 751 752 753 755 757 759 761 762 764 766 767 768 770 771 772 773 775 776 777 777 778 780 781 782 782 783 783 783 783 783 783 784 784 784 784 783 783 783 782 782 781 781 780 779 779 778 778 778 777 777 776 776 775 775 775 774 774 773 773 772 772 772 771 771 771 770 770 769
749 750 751 752 754 756 758 760 762 763 765 767 768 769 771 772 773 774 775 776 777 779 780 782 782 783 783 783 783 783 783 783 783 783 783 782 782 782 781 781 780 779 779 778 778 777 777 777 776 775 775 775 774 774 773 773 773 772 772 771 771 771 770 770 769 769 768 768 767
748 749 751 752 754 755 757 759 761 763 764 766 767 769 770 772 773 774 775 777 778 780 781 782 782 782 782 782 782 782 782 782 782 782 782 781 780 780 779 779 778 778 777 777 776 776 775 775 774 774 773 773 772 772 772 772 771 771 770 769 769 769 769 768 767 767 767 766 766
749 750 751 752 754 755 757 759 761 762 764 766 767 769 770 771 772 774 775 777 779 780 781 781 782 782 782 782 782 782 782 781 781 780 780 779 779 778 778 777 777 776 776 775 774 774 773 773 772 772 772 771 771 770 770 770 769 769 768 767 767 767 767 767 766 766 765 765 764
750 751 752 753 754 756 757 759 760 762 764 765 767 768 770 771 772 774 776 777 779 780 780 781 781 781 781 781 781 781 780 780 779 779 778 778 777 777 776 776 775 774 774 773 773 772 772 771 771 770 770 769 769 768 768 768 768 767 767 766 766 765 765 765 764 764 763 763 762
750 751 752 753 754 756 757 758 760 762 763 765 767 768 769 771 772 774 776 777 778 779 780 780 780 780 780 780 780 779 779 778 778 777 777 776 776 775 774 774 773 772 772 772 771 771 770 770 769 769 768 768 767 767 766 766 766 765 765 764 764 763 763 763 763 762 762 761 761
749 750 752 753 754 755 757 758 760 762 763 765 766 768 769 771 772 774 775 777 777 778 779 779 779 779 779 778 778 777 777 777 776 776 775 774 774 773 773 772 772 771 770 770 770 769 769 768 767 767 766 766 766 765 765 765 764 763 763 762 762 762 761 761 761 761 760 760 759
749 750 751 753 754 756 757 758 760 762 763 765 766 768 769 771 772 774 775 776 777 777 777 778 778 777 777 777 777 776 776 775 775 774 773 773 772 772 771 771 770 770 769 768 768 767 767 767 766 765 765 764 764 763 763 762 762 762 761 761 760 760 759 759 759 759 758 758 757
749 750 751 753 755 756 757 759 760 762 763 765 766 768 769 771 772 773 774 775 776 776 776 776 776 776 776 775 775 775 774 774 773 773 772 772 771 770 770 769 769 768 767 767 767 766 765 765 764 763 763 762 762 762 761 761 760 760 759 759 758 758 757 757 757 757 757 756 755
749 750 752 753 755 757 758 759 760 762 763 765 767 768 769 771 772 773 773 774 775 775 775 775 775 775 774 774 774 773 773 772 772 771 771 770 769 769 768 768 767 767 766 765 765 764 764 763 762 762 761 761 760 760 759 759 758 758 757 757 757 756 756 755 755 755 754 754 753
750 751 752 753 755 757 758 759 761 762 763 765 767 768 769 770 771 772 772 773 773 773 774 773 773 773 773 773 772 772 771 771 770 770 769 769 768 767 767 766 766 765 764 764 763 763 762 762 761 760 759 759 758 758 757 757 757 756 755 755 754 754 753 753 753 753 752 752 752
750 752 752 754 756 757 758 760 761 762 763 765 766 767 768 769 770 771 772 772 772 772 772 772 772 772 772 771 771 770 770 770 769 768 768 767 767 766 765 765 764 763 763 762 761 761 760 760 759 758 757 757 756 756 755 755 754 754 753 753 752 752 751 751 751 751 750 750 749
751 752 753 755 756 757 759 760 761 762 764 765 766 767 768 769 769 770 771 771 771 772 772 771 771 771 770 770 769 769 769 768 767 767 766 766 765 764 764 763 762 762 761 760 760 759 758 758 757 757 756 755 754 754 753 753 752 752 751 751 750 750 749 749 749 748 748 748 747
752 753 754 755 757 758 759 761 762 762 763 764 765 766 767 768 769 769 770 770 770 770 770 770 770 769 769 768 768 768 767 767 766 766 765 764 763 763 762 761 761 760 759 759 758 757 757 756 755 755 754 753 752 752 751 751 750 750 749 749 748 748 747 747 747 747 746 746 746
752 753 755 756 757 759 760 761 762 762 763 764 765 766 767 767 768 768 769 769 769 769 769 768 768 768 767 767 767 766 766 765 765 764 763 762 762 761 760 759 759 758 757 757 756 755 754 754 753 752 752 751 751 750 749 749 748 748 747 747 746 746 746 745 745 745 745 744 744
753 754 755 757 758 759 760 761 761 762 763 763 764 765 766 767 767 767 768 768 768 768 767 767 767 767 766 766 765 765 764 764 763 762 762 761 760 759 759 758 757 756 756 755 754 753 752 752 751 751 750 749 749 748 747 747 746 746 745 745 744 744 744 743 743 743 743 742 742
754 755 756 757 758 759 760 760 761 762 762 763 764 764 765 766 766 767 767 767 767 767 766 766 766 765 765 764 764 763 762 762 761 761 760 759 758 757 757 756 755 754 754 753 752 752 751 750 749 749 748 747 747 746 746 745 744 744 743 743 742 742 742 742 741 741 741 740 740
754 755 756 757 758 758 759 760 761 761 762 763 763 764 765 765 766 766 766 766 765 765 765 765 764 764 763 763 762 762 761 760 760 759 758 757 757 756 755 754 753 752 752 751 750 750 749 748 747 747 746 746 745 744 743 743 742 742 741 741 740 740 740 739 739 739 738 738 738
754 755 756 757 757 758 759 760 760 761 762 762 763 764 764 765 765 765 765 764 764 764 764 763 763 762 762 761 761 760 759 758 758 757 756 756 755 754 753 752 752 751 750 749 748 747 747 746 746 745 744 744 743 742 742 741 740 739 739 738 738 737 737 737 737 737 736 736 736
755 755 756 757 757 758 759 759 760 761 762 762 763 763 764 764 764 763 763 763 763 763 762 762 762 761 760 760 759 758 757 757 756 755 754 754 753 752 751 751 750 749 748 747 746 746 745 744 743 743 742 742 741 740 739 739 738 738 737 737 736 736 735 735 735 734 734 734 734
755 756 756 757 757 758 759 759 760 761 762 762 762 762 763 763 762 762 762 762 762 762 761 761 760 759 759 758 757 757 756 755 754 753 752 752 751 750 749 748 748 747 746 745 744 743 743 742 742 741 740 740 739 738 737 737 737 736 735 735 734 733 733 733 732 732 732 732 732
755 756 756 757 757 758 759 759 760 761 761 762 762 762 762 762 762 762 761 761 761 760 760 759 758 757 757 756 756 755 754 753 752 751 750 749 749 748 747 747 746 745 744 743 742 742 741 741 740 739 738 737 737 736 735 735 734 734 733 733 732 732 731 731 731 730 730 730 730
755 756 757 757 758 758 759 759 760 760 761 761 761 761 761 761 761 760 760 760 759 759 758 757 757 756 755 754 754 753 752 751 750 749 748 747 747 746 745 744 743 742 742 741 740 740 739 738 738 737 736 736 735 734 733 732 732 732 732 731 731 730 729 729 728 728 728 728 728
756 756 757 757 758 758 759 759 760 760 760 760 760 760 760 760 759 759 759 758 757 757 756 756 755 754 753 753 752 751 750 749 749 748 747 746 745 744 743 742 741 741 740 739 738 738 737 737 736 735 735 734 733 732 731 731 730 730 730 729 729 728 727 727 726 726 725 725 725
756 757 757 757 758 758 759 759 759 759 759 759 759 759 759 759 758 758 757 757 756 755 755 754 753 752 752 751 750 749 748 747 747 746 745 744 743 742 741 740 739 738 738 737 737 736 735 735 734 733 733 732 731 730 730 729 729 728 728 727 727 726 725 725 724 723 723 722 722
756 757 757 757 757 758 758 759 759 759 759 758 758 758 758 758 757 757 756 755 755 754 753 752 752 751 750 749 748 747 747 746 745 744 743 742 741 740 739 738 737 737 736 735 735 734 733 733 732 731 731 730 729 728 728 727 727 727 726 725 724 724 723 722 722 721 720 720 719
756 756 757 757 757 757 758 758 758 758 758 757 757 757 757 757 756 755 755 754 753 752 752 751 750 749 749 748 747 746 745 744 743 742 741 740 739 738 737 736 736 735 734 733 733 732 732 731 730 729 728 728 727 727 726 726 725 724 724 723 722 722 721 720 719 719 718 717 716
756 756 756 756 757 757 757 757 757 757 757 757 757 756 756 755 755 754 753 752 752 751 750 750 749 748 747 746 745 744 743 742 741 740 739 738 737 736 735 734 734 733 732 732 731 730 730 729 728 727 727 726 725 725 724 724 723 722 722 721 720 719 719 718 717 716 715 715 714
755 755 755 756 756 756 756 756 756 756 756 756 756 755 755 754 753 752 752 751 750 750 749 748 747 747 745 745 744 742 742 740 739 738 737 737 736 735 733 733 732 731 731 730 729 728 727 727 726 725 725 724 724 723 722 722 721 720 719 718 717 717 716 715 714 713 712 712 711
754 754 755 755 755 755 755 755 755 755 755 755 754 754 753 752 752 751 751 750 749 748 747 747 746 745 744 743 742 741 740 739 738 737 736 735 734 733 732 731 730 729 729 728 727 727 726 725 724 723 723 722 722 721 720 720 719 718 717 716 715 714 713 712 712 711 710 709 708
753 754 754 754 754 754 754 754 754 754 754 753 753 752 752 751 750 750 749 748 748 747 746 745 744 743 742 742 740 739 738 737 736 735 734 733 732 731 730 729 728 727 727 726 726 725 724 723 722 722 721 721 720 719 718 717 716 715 714 713 712 711 710 709 708 707 707 706 705
752 752 753 753 753 753 754 754 753 753 753 752 752 751 750 750 749 748 747 747 746 746 745 744 743 742 741 740 739 738 737 735 734 733 732 732 731 730 728 727 727 726 725 725 724 723 722 721 720 720 719 719 718 717 716 714 713 712 711 710 709 708 707 706 705 704 703 702 702
751 752 752 752 753 753 753 752 752 752 751 751 750 749 749 748 747 747 746 746 745 744 743 742 742 741 739 738 737 736 735 734 733 732 731 730 729 728 727 726 725 724 723 723 722 721 720 719 718 718 717 716 715 714 713 712 711 709 708 707 706 705 704 703 702 701 700 700 699
751 751 752 752 752 752 752 752 751 751 750 749 749 748 747 747 746 746 745 745 744 743 742 741 740 739 738 737 736 734 733 733 732 730 729 728 727 727 725 724 723 722 722 721 720 719 718 717 716 716 715 714 713 712 710 709 708 707 705 704 703 702 701 700 699 698 697 696 695
750 751 751 751 751 751 751 750 750 749 748 748 747 747 746 746 745 745 744 743 742 742 740 739 738 737 736 735 734 733 732 731 730 729 728 727 726 725 724 722 722 721 720 719 718 717 716 715 714 713 712 712 711 709 708 707 705 704 702 701 700 699 698 697 696 695 694 693 692
750 750 750 750 750 750 749 749 748 748 747 747 746 746 745 745 744 744 743 742 741 740 739 738 737 736 735 733 732 731 730 729 729 728 727 726 725 724 723 722 720 719 718 717 717 715 714 713 712 711 710 709 708 707 706 704 702 701 700 699 697 696 695 694 693 692 691 689 688
750 750 750 749 749 749 748 748 747 747 746 746 745 745 744 744 743 742 742 741 740 739 738 737 735 734 733 732 731 730 729 728 727 726 726 724 723 722 722 720 719 717 717 716 715 713 712 711 710 709 708 707 706 705 703 702 700 698 697 696 695 693 692 691 690 689 688 687 686
749 749 749 749 748 748 747 747 746 746 745 745 745 744 744 743 742 741 740 739 738 737 736 735 734 733 732 731 730 728 727 726 725 725 724 723 722 721 720 719 718 717 715 714 713 712 711 709 708 707 706 705 704 702 701 699 698 696 694 693 692 691 690 688 687 687 686 685 684